• In Hungary
  • List of Countries
  • For 7 days
  • Water Temperature
  • Satellite Maps
  • Weather Map
  • News
  • Weather Widgets
  • user-avatar
    Login

    Hourly Weather El Guna

    Today, 21 November, Tuesday

    Time Temperature Precipitation Wind Pressure Humidity
    00:00 +18°C° 0 mm 4 mps 733 mmHg 45%
    01:00 +17°C° 0 mm 4 mps 733 mmHg 47%
    02:00 +17°C° 0 mm 4 mps 733 mmHg 47%
    03:00 +17°C° 0 mm 4 mps 733 mmHg 49%
    04:00 +15°C° 0 mm 4 mps 734 mmHg 50%
    05:00 +15°C° 0 mm 4 mps 734 mmHg 52%
    06:00 +17°C° 0 mm 4 mps 734 mmHg 50%
    07:00 +17°C° 0 mm 5 mps 735 mmHg 49%
    08:00 +19°C° 0 mm 5 mps 735 mmHg 50%
    09:00 +20°C° 0 mm 5 mps 735 mmHg 45%
    10:00 +22°C° 0 mm 5 mps 735 mmHg 40%
    11:00 +23°C° 0 mm 5 mps 735 mmHg 35%
    12:00 +23°C° 0 mm 6 mps 734 mmHg 32%
    13:00 +24°C° 0 mm 6 mps 734 mmHg 30%
    14:00 +26°C° 0 mm 6 mps 733 mmHg 26%
    15:00 +24°C° 0 mm 6 mps 733 mmHg 29%
    16:00 +23°C° 0 mm 6 mps 733 mmHg 32%
    17:00 +21°C° 0 mm 6 mps 733 mmHg 36%
    18:00 +21°C° 0 mm 6 mps 733 mmHg 40%
    19:00 +20°C° 0 mm 5 mps 734 mmHg 44%
    20:00 +19°C° 0 mm 5 mps 734 mmHg 49%
    21:00 +17°C° 0 mm 5 mps 734 mmHg 52%
    22:00 +18°C° 0 mm 4 mps 734 mmHg 54%
    23:00 +17°C° 0 mm 4 mps 734 mmHg 57%

    Tomorrow, 22 November, Wednesday

    Time Temperature Precipitation Wind Pressure Humidity
    00:00 +16°C° 0 mm 5 mps 734 mmHg 61%
    01:00 +15°C° 0 mm 5 mps 734 mmHg 65%
    02:00 +15°C° 0 mm 5 mps 734 mmHg 70%
    03:00 +14°C° 0 mm 5 mps 734 mmHg 74%
    04:00 +14°C° 0 mm 5 mps 734 mmHg 78%
    05:00 +13°C° 0 mm 5 mps 734 mmHg 82%
    06:00 +13°C° 0 mm 5 mps 735 mmHg 77%
    07:00 +14°C° 0 mm 5 mps 735 mmHg 72%
    08:00 +14°C° 0 mm 6 mps 735 mmHg 67%
    09:00 +16°C° 0 mm 6 mps 736 mmHg 58%
    10:00 +17°C° 0 mm 6 mps 736 mmHg 48%
    11:00 +20°C° 0 mm 6 mps 736 mmHg 38%
    12:00 +20°C° 0 mm 6 mps 736 mmHg 37%
    13:00 +21°C° 0 mm 7 mps 735 mmHg 35%
    14:00 +21°C° 0 mm 7 mps 735 mmHg 33%
    15:00 +20°C° 0 mm 7 mps 735 mmHg 37%
    16:00 +19°C° 0 mm 6 mps 735 mmHg 42%
    17:00 +17°C° 0 mm 6 mps 735 mmHg 46%
    18:00 +16°C° 0 mm 6 mps 735 mmHg 51%
    19:00 +15°C° 0 mm 5 mps 735 mmHg 55%
    20:00 +14°C° 0 mm 5 mps 736 mmHg 60%
    21:00 +14°C° 0 mm 5 mps 736 mmHg 63%
    22:00 +14°C° 0 mm 5 mps 736 mmHg 66%
    23:00 +13°C° 0 mm 5 mps 736 mmHg 68%

    Day after tomorrow, 23 November, Thursday

    Time Temperature Precipitation Wind Pressure Humidity
    00:00 +13°C° 0 mm 5 mps 736 mmHg 70%
    01:00 +13°C° 0 mm 5 mps 736 mmHg 72%
    02:00 +12°C° 0 mm 5 mps 736 mmHg 74%
    03:00 +12°C° 0 mm 4 mps 736 mmHg 76%
    04:00 +12°C° 0 mm 4 mps 736 mmHg 77%
    05:00 +11°C° 0 mm 4 mps 736 mmHg 79%
    06:00 +12°C° 0 mm 5 mps 736 mmHg 74%
    07:00 +13°C° 0 mm 5 mps 736 mmHg 70%
    08:00 +14°C° 0 mm 5 mps 737 mmHg 65%
    09:00 +16°C° 0 mm 5 mps 737 mmHg 56%
    10:00 +17°C° 0 mm 5 mps 737 mmHg 48%
    11:00 +20°C° 0 mm 5 mps 737 mmHg 39%
    12:00 +20°C° 0 mm 5 mps 736 mmHg 37%
    13:00 +21°C° 0 mm 5 mps 736 mmHg 35%
    14:00 +21°C° 0 mm 5 mps 735 mmHg 33%
    15:00 +20°C° 0 mm 5 mps 735 mmHg 37%
    16:00 +19°C° 0 mm 5 mps 735 mmHg 42%
    17:00 +18°C° 0 mm 4 mps 735 mmHg 47%
    18:00 +17°C° 0 mm 4 mps 736 mmHg 50%
    19:00 +15°C° 0 mm 4 mps 736 mmHg 54%
    20:00 +15°C° 0 mm 4 mps 736 mmHg 58%
    21:00 +14°C° 0 mm 4 mps 736 mmHg 60%
    22:00 +14°C° 0 mm 4 mps 736 mmHg 62%
    23:00 +13°C° 0 mm 4 mps 736 mmHg 64%

    24 November, Friday

    Time Temperature Precipitation Wind Pressure Humidity
    00:00 +13°C° 0 mm 4 mps 736 mmHg 66%
    01:00 +13°C° 0 mm 4 mps 736 mmHg 69%
    02:00 +12°C° 0 mm 4 mps 735 mmHg 72%
    03:00 +12°C° 0 mm 4 mps 735 mmHg 74%
    04:00 +12°C° 0 mm 3 mps 735 mmHg 76%
    05:00 +11°C° 0 mm 3 mps 735 mmHg 78%
    06:00 +12°C° 0 mm 3 mps 736 mmHg 72%
    07:00 +13°C° 0 mm 3 mps 736 mmHg 66%
    08:00 +14°C° 0 mm 3 mps 737 mmHg 60%
    09:00 +17°C° 0 mm 4 mps 737 mmHg 52%
    10:00 +19°C° 0 mm 4 mps 737 mmHg 44%
    11:00 +20°C° 0 mm 4 mps 736 mmHg 37%
    12:00 +21°C° 0 mm 4 mps 736 mmHg 35%
    13:00 +21°C° 0 mm 4 mps 735 mmHg 33%
    14:00 +22°C° 0 mm 3 mps 735 mmHg 31%
    15:00 +21°C° 0 mm 3 mps 735 mmHg 35%
    16:00 +20°C° 0 mm 3 mps 735 mmHg 39%
    17:00 +19°C° 0 mm 3 mps 735 mmHg 43%
    18:00 +18°C° 0 mm 2 mps 735 mmHg 46%
    19:00 +17°C° 0 mm 2 mps 736 mmHg 49%
    20:00 +16°C° 0 mm 2 mps 736 mmHg 52%
    21:00 +16°C° 0 mm 2 mps 736 mmHg 51%
    22:00 +16°C° 0 mm 2 mps 736 mmHg 50%
    23:00 +15°C° 0 mm 2 mps 736 mmHg 49%

    25 November, Saturday

    Time Temperature Precipitation Wind Pressure Humidity
    00:00 +15°C° 0 mm 2 mps 736 mmHg 49%
    01:00 +15°C° 0 mm 2 mps 735 mmHg 49%
    02:00 +14°C° 0 mm 2 mps 735 mmHg 49%
    03:00 +14°C° 0 mm 2 mps 735 mmHg 51%
    04:00 +14°C° 0 mm 2 mps 735 mmHg 53%
    05:00 +14°C° 0 mm 2 mps 735 mmHg 54%
    06:00 +15°C° 0 mm 2 mps 735 mmHg 50%
    07:00 +17°C° 0 mm 2 mps 735 mmHg 46%
    08:00 +18°C° 0 mm 2 mps 736 mmHg 42%
    09:00 +20°C° 0 mm 2 mps 736 mmHg 38%
    10:00 +21°C° 0 mm 2 mps 736 mmHg 33%
    11:00 +24°C° 0 mm 2 mps 736 mmHg 28%
    12:00 +24°C° 0 mm 2 mps 735 mmHg 27%
    13:00 +25°C° 0 mm 3 mps 735 mmHg 25%
    14:00 +25°C° 0 mm 3 mps 734 mmHg 23%
    15:00 +24°C° 0 mm 3 mps 734 mmHg 27%
    16:00 +23°C° 0 mm 2 mps 734 mmHg 30%
    17:00 +20°C° 0 mm 2 mps 734 mmHg 34%
    18:00 +20°C° 0 mm 2 mps 734 mmHg 36%
    19:00 +19°C° 0 mm 2 mps 735 mmHg 39%
    20:00 +18°C° 0 mm 2 mps 735 mmHg 42%
    21:00 +18°C° 0 mm 2 mps 735 mmHg 41%
    22:00 +17°C° 0 mm 2 mps 735 mmHg 40%
    23:00 +17°C° 0 mm 2 mps 735 mmHg 40%

    26 November, Sunday

    Time Temperature Precipitation Wind Pressure Humidity
    00:00 +16°C° 0 mm 2 mps 735 mmHg 39%
    01:00 +16°C° 0 mm 2 mps 735 mmHg 39%
    02:00 +16°C° 0 mm 3 mps 734 mmHg 38%
    03:00 +14°C° 0 mm 3 mps 734 mmHg 38%
    04:00 +14°C° 0 mm 3 mps 734 mmHg 38%
    05:00 +14°C° 0 mm 3 mps 735 mmHg 38%
    06:00 +16°C° 0 mm 3 mps 735 mmHg 35%
    07:00 +17°C° 0 mm 3 mps 735 mmHg 32%
    08:00 +19°C° 0 mm 3 mps 736 mmHg 30%
    09:00 +20°C° 0 mm 3 mps 736 mmHg 28%
    10:00 +21°C° 0 mm 4 mps 736 mmHg 26%
    11:00 +23°C° 0 mm 4 mps 736 mmHg 25%
    12:00 +23°C° 0 mm 4 mps 736 mmHg 25%
    13:00 +25°C° 0 mm 5 mps 735 mmHg 24%
    14:00 +25°C° 0 mm 5 mps 735 mmHg 24%
    15:00 +23°C° 0 mm 5 mps 735 mmHg 29%
    16:00 +22°C° 0 mm 5 mps 735 mmHg 34%
    17:00 +21°C° 0 mm 5 mps 736 mmHg 40%
    18:00 +20°C° 0 mm 5 mps 736 mmHg 45%
    19:00 +19°C° 0 mm 4 mps 736 mmHg 50%
    20:00 +18°C° 0 mm 4 mps 736 mmHg 55%
    21:00 +17°C° 0 mm 4 mps 736 mmHg 57%
    22:00 +17°C° 0 mm 4 mps 736 mmHg 59%
    23:00 +17°C° 0 mm 3 mps 736 mmHg 61%
    Show more